Content
SEND FEEDBACK

Daily
Averages
Monthly
Summary
Malaysia

KUALA LUMPUR, MALAYSIA


Home > Asia > Malaysia
Elevation: 72 feet     Latitude: 03 07N     Longitude: 101 33E

WEATHER
 
SELECT A DAY
Number of Records: 119,836;   Date Range: 7/19/98 - 7/23/14
 
SHARE

PRINT THIS DATA

[ ← Previous Day ]
WEATHER ALMANAC - FEBRUARY 13, 2013
[ Next Day → ]
[ °C ]   °F
Weather ElementAverageHighLow
Temperature80.5 °F89.6 °F (4:00 pm)75.2 °F (8:00 am)
Dewpoint76.4 °F78.8 °F (12:00 pm)75.2 °F (1:00 am)
Humidity87.8 %100 % (5:00 am)66 % (4:00 pm)
Barometer29.78 in29.83 in (1:00 am)29.71 in (4:00 pm)
Wind Speed3 mph8.1 mph (7:00 pm)
Weather ElementAverage
Visibility5.8 mi
Wind DirectionSE (131.7 °)

Weather ElementTotal
Precipitation---
Cooling Degree Days17.4 (Base 65)
Growing Degree Days32.4 (Base 50)
Averaged from 23 records on February 13, 2013
WEATHER CONDITIONS BREAKOUT
WIND DIRECTION BREAKOUT
WEATHER BY HOUR - FEBRUARY 13, 2013
[ °C ]   °F
Local TimeTemperatureDewpointHumidityBarometerVisibilityWind DirectionWind SpeedGust SpeedPrecipitationEventsConditions
1:00 AM77.0 °F75.2 °F94 %29.83 in6.2 miNNE (20°)2.3 mphMostly Cloudy
2:00 AM77.0 °F75.2 °F94 %29.80 in5.6 miNNW (340°)2.3 mphMostly Cloudy
3:00 AM77.0 °F75.2 °F94 %29.80 in5.6 miNorth (10°)1.2 mphMostly Cloudy
4:00 AM77.0 °F75.2 °F94 %29.77 in5.6 miNE (40°)1.2 mphMostly Cloudy
5:00 AM77.0 °F77.0 °F100 %29.77 in4.3 miCalmRainLight Rain
6:00 AM77.0 °F75.2 °F94 %29.77 in5.0 miNNE (30°)1.2 mphMostly Cloudy
7:00 AM77.0 °F75.2 °F94 %29.77 in4.3 miNorth (350°)4.6 mphMostly Cloudy
8:00 AM75.2 °F75.2 °F100 %29.80 in5.6 miNorth (360°)3.5 mphMostly Cloudy
9:00 AM75.2 °F75.2 °F100 %29.80 in6.2 miCalmMostly Cloudy
10:00 AM77.0 °F75.2 °F94 %29.83 in5.6 miNW (310°)1.2 mphMostly Cloudy
11:00 AM80.6 °F77.0 °F89 %29.83 in5.6 miNNE (20°)2.3 mphMostly Cloudy
12:00 PM82.4 °F78.8 °F89 %29.83 in6.2 miENE (70°)2.3 mphMostly Cloudy
1:00 PM86.0 °F78.8 °F79 %29.80 in6.2 miNNE (30°)2.3 mphMostly Cloudy
2:00 PM86.0 °F78.8 °F79 %29.80 in6.2 miNNE (30°)4.6 mphMostly Cloudy
3:00 PM86.0 °F77.0 °F74 %29.74 in6.2 miNorth (10°)3.5 mphMostly Cloudy
4:00 PM89.6 °F77.0 °F66 %29.71 in6.2 miNNE (30°)4.6 mphMostly Cloudy
5:00 PM87.8 °F77.0 °F70 %29.71 in6.2 miNNE (30°)5.8 mphMostly Cloudy
6:00 PM86.0 °F75.2 °F70 %29.71 in6.2 miNNE (30°)3.5 mphMostly Cloudy
7:00 PM82.4 °F77.0 °F84 %29.74 in6.2 miWNW (300°)8.1 mphMostly Cloudy
8:00 PM80.6 °F77.0 °F89 %29.77 in6.2 miNW (310°)5.8 mphMostly Cloudy
9:00 PM80.6 °F75.2 °F84 %29.80 in6.2 miNNW (330°)4.6 mphMostly Cloudy
10:00 PM78.8 °F77.0 °F94 %29.80 in5.6 miNNE (30°)2.3 mphMostly Cloudy
11:00 PM78.8 °F77.0 °F94 %29.83 in5.6 miNorth (350°)1.2 mphMostly Cloudy
Hourly data recorded from WMSA, located miles away from Kuala Lumpur, Malaysia







STORIES FROM OUR PARTNERS